W2IRT Weather Reports


time (UTC)temp
C
wind
direction
speed
KPH
gust
KPH
rain 1hr
cm
rain 24hr
cm
rain mn
cm
humidity
%
barometer
mb
20260510225515 20 0.0 0.0 0.00 0.00 0.00 55 1013.0
20260510225015 20 0.0 3.2 0.00 0.00 0.00 56 1012.9
20260510224516 20 0.0 3.2 0.00 0.00 0.00 56 1013.1
20260510224031 20 0.0 4.8 0.00 0.00 0.00 56 1013.1
20260510223515 20 0.0 0.0 0.00 0.00 0.00 56 1013.0
20260510223015 20 0.0 0.0 0.00 0.00 0.00 56 1012.9
20260510222515 20 0.0 0.0 0.00 0.00 0.00 55 1012.9
20260510222015 20 202 1.6 8.0 0.00 0.00 0.00 55 1013.0
20260510221515 20 0.0 4.8 0.00 0.00 0.00 55 1012.9
20260510221015 20 0.0 0.0 0.00 0.00 0.00 54 1012.9
20260510220515 20 0.0 1.6 0.00 0.03 0.00 54 1012.9
20260510220015 20 0.0 4.8 0.00 0.03 0.00 54 1012.8
20260510215516 20 0.0 0.0 0.00 0.03 0.00 55 1012.8
20260510215015 20 0.0 4.8 0.00 0.03 0.00 55 1012.9
20260510214515 20 0.0 3.2 0.00 0.03 0.00 55 1012.8
20260510214015 20 0.0 4.8 0.00 0.13 0.00 54 1012.9
20260510213515 20 225 1.6 8.0 0.00 0.23 0.00 54 1012.9
20260510213015 20 225 1.6 8.0 0.00 0.28 0.00 54 1012.9
20260510212515 20 0.0 0.0 0.00 0.33 0.00 54 1012.9
20260510212015 21 225 1.6 6.4 0.00 0.36 0.00 53 1012.8
20260510211515 21 0.0 6.4 0.00 0.38 0.00 54 1012.8
20260510211015 21 225 1.6 8.0 0.00 0.43 0.00 54 1012.7
20260510210515 21 0.0 4.8 0.00 0.48 0.00 54 1012.6
20260510210015 21 225 3.2 9.7 0.00 0.51 0.00 53 1012.6
20260510205515 21 270 3.2 9.7 0.00 0.51 0.00 53 1012.5
20260510205015 21 270 3.2 9.7 0.00 0.51 0.00 53 1012.5
20260510204515 21 225 3.2 8.0 0.00 0.53 0.00 53 1012.4
20260510204015 21 0.0 6.4 0.00 0.53 0.00 53 1012.4
20260510203515 21 0.0 3.2 0.00 0.56 0.00 52 1012.4
20260510203015 21 270 1.6 6.4 0.00 0.56 0.00 51 1012.3
20260510202515 22 225 1.6 8.0 0.00 0.56 0.00 51 1012.3
20260510202015 22 247 1.6 6.4 0.00 0.56 0.00 51 1012.3
20260510201515 22 0.0 4.8 0.00 0.56 0.00 51 1012.2
20260510201015 22 0.0 3.2 0.00 0.56 0.00 50 1012.1
20260510200515 22 0.0 8.0 0.00 0.56 0.00 50 1012.1
20260510200015 22 0.0 6.4 0.00 0.56 0.00 50 1012.1
20260510195515 22 0.0 11.3 0.00 0.56 0.00 49 1012.1
20260510195015 22 0.0 6.4 0.00 0.56 0.00 49 1012.2
20260510194515 23 270 1.6 11.3 0.00 0.56 0.00 47 1012.2
20260510194015 23 225 1.6 9.7 0.00 0.58 0.00 47 1012.1
20260510193532 23 270 1.6 12.9 0.00 0.58 0.00 47 1012.2
20260510193017 23 0 1.6 12.9 0.00 0.58 0.00 50 1012.2
20260510192517 23 225 1.6 6.4 0.00 0.58 0.00 50 1012.1
20260510192017 23 225 1.6 8.0 0.00 0.58 0.00 49 1012.1
20260510191517 23 0.0 0.0 0.00 0.58 0.00 49 1012.1
20260510191017 23 0.0 6.4 0.00 0.58 0.00 49 1012.1
20260510190517 23 292 1.6 6.4 0.00 0.58 0.00 47 1012.2
20260510190017 23 0.0 4.8 0.00 0.58 0.00 50 1012.2
20260510185517 23 0.0 4.8 0.00 0.58 0.00 51 1012.1
20260510185017 23 270 1.6 9.7 0.00 0.58 0.00 48 1012.2
20260510184517 23 292 1.6 6.4 0.00 0.58 0.00 50 1012.2
20260510184017 23 225 3.2 11.3 0.00 0.58 0.00 50 1012.3
20260510183517 23 225 1.6 6.4 0.00 0.58 0.00 51 1012.3
20260510183016 23 0 1.6 11.3 0.00 0.58 0.00 53 1012.3
20260510182517 22 225 1.6 6.4 0.00 0.58 0.00 53 1012.3
20260510182016 22 0.0 4.8 0.00 0.58 0.00 55 1012.4
20260510181517 22 0.0 4.8 0.00 0.58 0.00 57 1012.3
20260510181017 22 0.0 6.4 0.00 0.58 0.00 58 1012.4
20260510180517 22 0.0 4.8 0.00 0.58 0.00 57 1012.3
20260510180017 22 202 1.6 6.4 0.00 0.58 0.00 59 1012.3
20260510175517 22 225 3.2 11.3 0.00 0.58 0.00 59 1012.2
20260510175016 22 0.0 6.4 0.00 0.58 0.00 60 1012.2
20260510174517 22 0.0 0.0 0.00 0.61 0.00 62 1012.2
20260510174017 22 0.0 0.0 0.00 0.61 0.00 60 1012.2
20260510173516 22 202 1.6 6.4 0.00 0.61 0.00 60 1012.1
20260510173017 22 0.0 4.8 0.00 0.64 0.00 61 1012.1
20260510172517 22 0.0 3.2 0.00 0.64 0.00 62 1012.1
20260510172017 22 0.0 1.6 0.00 0.64 0.00 62 1012.1
20260510171517 22 0.0 4.8 0.00 0.64 0.00 61 1012.2
20260510171016 22 225 1.6 6.4 0.00 0.64 0.00 62 1012.2
20260510170517 22 0.0 0.0 0.00 0.64 0.00 63 1012.2
20260510170016 21 0.0 4.8 0.00 0.64 0.00 64 1012.3
20260510165516 21 225 1.6 8.0 0.00 0.64 0.00 67 1012.3
20260510165016 21 0.0 6.4 0.00 0.64 0.00 69 1012.3
20260510164516 21 0.0 6.4 0.00 0.64 0.00 69 1012.4
20260510164017 20 0.0 0.0 0.00 0.64 0.00 70 1012.5
20260510163516 20 0.0 0.0 0.00 0.64 0.00 73 1012.6
20260510163032 20 0.0 4.8 0.00 0.64 0.00 72 1012.7
20260510162516 19 0.0 0.0 0.00 0.64 0.00 74 1012.6
20260510162016 19 0.0 0.0 0.00 0.64 0.00 73 1012.7
20260510161516 18 0.0 6.4 0.00 0.64 0.00 75 1012.7
20260510161017 18 0.0 0.0 0.00 0.64 0.00 76 1012.8
20260510160517 18 0.0 0.0 0.00 0.64 0.00 77 1012.8
20260510160016 18 0.0 0.0 0.00 0.64 0.00 79 1012.8
20260510155516 18 0.0 0.0 0.00 0.64 0.00 78 1012.7
20260510155016 17 0.0 0.0 0.00 0.64 0.00 79 1012.7
20260510154516 17 0.0 0.0 0.00 0.64 0.00 79 1012.7
20260510154016 17 0.0 0.0 0.00 0.64 0.00 80 1012.9
20260510153516 17 0.0 1.6 0.00 0.64 0.00 80 1013.0
20260510153016 17 0.0 3.2 0.00 0.64 0.00 82 1013.0
20260510152517 16 0.0 0.0 0.00 0.64 0.00 83 1012.9
20260510152016 16 0.0 4.8 0.00 0.64 0.00 83 1012.9
20260510151516 16 0.0 4.8 0.00 0.64 0.00 84 1012.9
20260510151016 16 0.0 0.0 0.00 0.64 0.00 84 1012.9
20260510150516 16 0.0 0.0 0.00 0.64 0.00 85 1012.9
20260510150016 16 0.0 0.0 0.00 0.64 0.00 86 1013.0
20260510145516 15 0.0 0.0 0.00 0.64 0.00 87 1013.1
20260510145016 15 0.0 0.0 0.00 0.64 0.00 87 1013.2
20260510144516 15 0.0 0.0 0.00 0.64 0.00 89 1013.2
20260510144016 15 0.0 0.0 0.00 0.64 0.00 90 1013.1
20260510143516 15 0.0 0.0 0.00 0.64 0.00 89 1012.9
20260510143016 15 0.0 0.0 0.00 0.64 0.00 90 1012.9
20260510142516 15 0.0 0.0 0.00 0.64 0.00 90 1012.9
20260510142016 14 0.0 0.0 0.00 0.64 0.00 90 1012.9
20260510141516 14 0.0 0.0 0.00 0.64 0.00 91 1013.0
20260510141016 14 0.0 0.0 0.00 0.64 0.00 91 1013.0
20260510140517 14 0.0 0.0 0.00 0.64 0.00 91 1012.9
20260510140016 13 0.0 0.0 0.00 0.64 0.00 91 1012.9
20260510135516 13 0.0 0.0 0.00 0.64 0.00 91 1012.9
20260510135016 13 0.0 0.0 0.00 0.64 0.00 91 1012.9
20260510134516 13 0.0 0.0 0.00 0.64 0.00 91 1012.8
20260510134016 13 0.0 0.0 0.00 0.64 0.00 91 1012.9
20260510133516 13 0.0 0.0 0.00 0.64 0.00 91 1012.8
20260510133017 13 0.0 0.0 0.00 0.64 0.00 92 1012.9
20260510132532 13 0.0 0.0 0.00 0.64 0.00 92 1012.8
20260510132016 13 0.0 0.0 0.00 0.64 0.00 91 1012.8
20260510131516 13 0.0 0.0 0.00 0.64 0.00 91 1012.8
20260510131016 13 0.0 0.0 0.00 0.64 0.00 91 1012.8
20260510130516 13 0.0 0.0 0.00 0.64 0.00 92 1012.7
20260510130016 13 0.0 0.0 0.00 0.64 0.00 92 1012.6
20260510125516 12 0.0 0.0 0.00 0.64 0.00 92 1012.4
20260510125016 12 0.0 0.0 0.00 0.64 0.00 92 1012.4
20260510124516 12 0.0 0.0 0.00 0.64 0.00 92 1012.5
20260510124016 12 0.0 0.0 0.00 0.64 0.00 92 1012.5
20260510123516 12 0.0 0.0 0.00 0.64 0.00 91 1012.3
20260510123016 12 0.0 0.0 0.00 0.64 0.00 91 1012.3
20260510122516 12 0.0 0.0 0.00 0.64 0.00 91 1012.3
20260510122016 12 0.0 0.0 0.00 0.64 0.00 92 1012.4
20260510121516 12 0.0 0.0 0.00 0.64 0.00 91 1012.3
20260510121016 12 0.0 0.0 0.00 0.64 0.00 91 1012.2
20260510120516 12 0.0 0.0 0.00 0.64 0.00 92 1012.0
20260510120016 12 0.0 0.0 0.00 0.64 0.00 92 1012.0
20260510115516 12 0.0 0.0 0.00 0.64 0.00 91 1012.0
20260510115016 12 0.0 0.0 0.00 0.64 0.00 91 1012.0
20260510114516 12 0.0 0.0 0.00 0.64 0.00 91 1012.0
20260510114016 12 0.0 0.0 0.00 0.64 0.00 91 1011.9
20260510113517 12 0.0 0.0 0.00 0.64 0.00 91 1011.9
20260510113016 12 0.0 0.0 0.00 0.64 0.00 92 1011.9
20260510112515 12 0.0 0.0 0.00 0.64 0.00 92 1011.8
20260510112016 12 0.0 0.0 0.00 0.64 0.00 92 1011.9
20260510111516 12 0.0 0.0 0.00 0.64 0.00 92 1011.8
20260510111015 12 0.0 0.0 0.00 0.64 0.00 91 1011.7
20260510110515 11 0.0 0.0 0.00 0.64 0.00 91 1011.5
20260510110016 11 0.0 0.0 0.00 0.64 0.00 91 1011.4
20260510105516 11 0.0 0.0 0.00 0.64 0.00 91 1011.4
20260510105015 11 0.0 0.0 0.00 0.64 0.00 91 1011.3
20260510104515 11 0.0 0.0 0.00 0.64 0.00 91 1011.2
20260510104016 11 0.0 0.0 0.00 0.64 0.00 91 1011.2
20260510103515 11 0.0 0.0 0.00 0.64 0.00 91 1011.3
20260510103016 11 0.0 0.0 0.00 0.64 0.00 91 1011.4
20260510102516 11 0.0 0.0 0.00 0.64 0.00 91 1011.1
20260510102031 11 0.0 0.0 0.00 0.64 0.00 91 1011.2
20260510101516 11 0.0 0.0 0.00 0.64 0.00 91 1011.3
20260510101016 11 0.0 0.0 0.00 0.64 0.00 91 1011.1
20260510100515 11 0.0 0.0 0.00 0.64 0.00 91 1011.2
20260510100015 11 0.0 0.0 0.00 0.64 0.00 91 1011.4
20260510095516 11 0.0 0.0 0.00 0.64 0.00 91 1011.3
20260510095016 11 0.0 0.0 0.00 0.64 0.00 91 1011.3
20260510094515 11 0.0 0.0 0.00 0.64 0.00 91 1011.3
20260510094015 11 0.0 0.0 0.00 0.64 0.00 91 1011.3
20260510093515 11 0.0 0.0 0.00 0.64 0.00 91 1011.3
20260510093016 11 0.0 0.0 0.00 0.64 0.00 91 1011.2
20260510092515 11 0.0 0.0 0.00 0.64 0.00 91 1011.3
20260510092015 11 0.0 0.0 0.00 0.64 0.00 91 1011.3
20260510091515 11 0.0 0.0 0.00 0.64 0.00 91 1011.5
20260510091015 11 0.0 0.0 0.00 0.64 0.00 90 1011.6
20260510090515 11 0.0 0.0 0.00 0.64 0.00 91 1011.6
20260510090015 12 0.0 0.0 0.00 0.64 0.00 91 1011.8
20260510085515 12 0.0 0.0 0.00 0.64 0.00 91 1011.8
20260510085015 12 0.0 0.0 0.00 0.64 0.00 91 1011.9
20260510084515 12 0.0 0.0 0.00 0.64 0.00 91 1012.0
20260510084016 12 0.0 0.0 0.00 0.64 0.00 91 1011.8
20260510083516 12 0.0 0.0 0.00 0.64 0.00 91 1011.8
20260510083015 12 0.0 0.0 0.00 0.64 0.00 91 1011.9
20260510082515 12 0.0 0.0 0.00 0.64 0.00 91 1011.7
20260510082015 12 0.0 0.0 0.00 0.64 0.00 91 1011.8
20260510081515 12 0.0 0.0 0.00 0.64 0.00 91 1011.8
20260510081015 12 0.0 6.4 0.00 0.64 0.00 91 1011.7
20260510080515 12 0.0 1.6 0.00 0.64 0.00 91 1011.6
20260510080015 12 0.0 0.0 0.00 0.64 0.00 91 1011.1
20260510075515 12 0.0 0.0 0.00 0.64 0.00 91 1010.9
20260510075015 12 0.0 0.0 0.00 0.64 0.00 91 1010.9
20260510074515 12 0.0 0.0 0.00 0.64 0.00 91 1010.8
20260510074015 12 0.0 0.0 0.00 0.64 0.00 91 1010.8
20260510073515 12 0.0 0.0 0.00 0.64 0.00 91 1010.8
20260510073015 12 0.0 0.0 0.00 0.64 0.00 91 1010.8
20260510072515 12 0.0 0.0 0.00 0.64 0.00 91 1010.7
20260510072015 12 0.0 0.0 0.00 0.64 0.00 91 1010.8
20260510071531 12 0.0 0.0 0.00 0.64 0.00 91 1010.8
20260510071015 12 0.0 0.0 0.00 0.64 0.00 91 1010.8
20260510070515 12 0.0 0.0 0.00 0.64 0.00 91 1010.9
20260510070015 12 0.0 0.0 0.00 0.64 0.00 91 1010.9
20260510065515 12 0.0 0.0 0.00 0.64 0.00 91 1011.0
20260510065015 12 0.0 0.0 0.00 0.64 0.00 91 1011.0
20260510064515 12 0.0 0.0 0.00 0.64 0.00 91 1011.0
20260510064015 12 0.0 0.0 0.00 0.64 0.00 91 1011.1
20260510063515 12 0.0 0.0 0.00 0.64 0.00 91 1011.0
20260510063015 12 0.0 0.0 0.00 0.64 0.00 91 1011.0
20260510062515 12 0.0 0.0 0.00 0.64 0.00 91 1011.0
20260510062015 12 0.0 0.0 0.00 0.64 0.00 91 1010.9
20260510061515 12 0.0 0.0 0.00 0.64 0.00 91 1010.7
20260510061015 12 0.0 0.0 0.00 0.64 0.00 90 1010.6
20260510060515 12 0.0 0.0 0.00 0.64 0.00 90 1010.6
20260510060015 12 0.0 0.0 0.00 0.64 0.00 91 1010.7
20260510055515 12 0.0 0.0 0.00 0.64 0.00 91 1010.6
20260510055015 12 0.0 0.0 0.00 0.64 0.00 91 1010.7
20260510054515 12 0.0 0.0 0.00 0.64 0.00 91 1010.7
20260510054015 12 0.0 0.0 0.00 0.64 0.00 91 1010.7
20260510053517 12 0.0 0.0 0.00 0.64 0.00 91 1010.7
20260510053017 12 0.0 0.0 0.00 0.64 0.00 91 1010.7
20260510052517 12 0.0 0.0 0.00 0.64 0.00 91 1010.6
20260510052017 12 0.0 0.0 0.00 0.64 0.00 90 1010.8
20260510051517 12 0.0 0.0 0.00 0.64 0.00 90 1010.8
20260510051016 12 0.0 0.0 0.00 0.64 0.00 90 1010.9
20260510050517 12 0.0 0.0 0.00 0.64 0.00 90 1010.9
20260510050017 12 0.0 0.0 0.00 0.64 0.00 90 1010.9
20260510045517 12 0.0 0.0 0.00 0.64 0.00 90 1010.9
20260510045017 12 0.0 0.0 0.00 0.64 0.00 90 1010.9
20260510044517 12 0.0 0.0 0.00 0.64 0.00 90 1010.8
20260510044017 12 0.0 0.0 0.00 0.64 0.00 90 1010.9
20260510043517 11 0.0 0.0 0.00 0.64 0.00 90 1011.0
20260510043017 11 0.0 0.0 0.00 0.64 0.00 90 1011.0
20260510042517 11 0.0 0.0 0.00 0.64 0.00 90 1010.9
20260510042016 11 0.0 0.0 0.00 0.64 0.00 90 1011.0
20260510041517 11 0.0 0.0 0.00 0.64 0.00 90 1011.0
20260510041032 11 0.0 0.0 0.00 0.64 0.00 90 1010.9
20260510040517 11 0.0 0.0 0.00 0.64 0.00 90 1010.9
20260510040017 11 0.0 0.0 0.00 0.64 0.00 90 1010.9
20260510035515 11 0.0 0.0 0.00 0.64 0.64 90 1010.8
20260510035015 11 0.0 0.0 0.00 0.64 0.64 90 1010.8
20260510034515 11 0.0 0.0 0.00 0.64 0.64 90 1010.7
20260510034015 11 0.0 0.0 0.00 0.64 0.64 90 1010.6
20260510033515 11 0.0 0.0 0.00 0.64 0.64 90 1010.5
20260510033015 12 0.0 0.0 0.00 0.64 0.64 90 1010.6
20260510032515 12 0.0 0.0 0.00 0.64 0.64 90 1010.6
20260510032015 12 0.0 0.0 0.00 0.64 0.64 90 1010.5
20260510031515 12 0.0 0.0 0.00 0.64 0.64 89 1010.5
20260510031015 12 0.0 0.0 0.00 0.64 0.64 89 1010.5
20260510030515 12 0.0 0.0 0.00 0.64 0.64 89 1010.5
20260510030015 12 0.0 0.0 0.00 0.64 0.64 89 1010.5
20260510025515 12 0.0 0.0 0.00 0.64 0.64 89 1010.6
20260510025015 12 0.0 0.0 0.00 0.64 0.64 89 1010.5
20260510024515 12 0.0 0.0 0.00 0.64 0.64 89 1010.4
20260510024015 12 0.0 0.0 0.00 0.64 0.64 90 1010.5
20260510023515 12 0.0 0.0 0.00 0.64 0.64 90 1010.6
20260510023015 12 0.0 0.0 0.00 0.64 0.64 90 1010.6
20260510022515 12 0.0 0.0 0.00 0.64 0.64 90 1010.6
20260510022015 12 0.0 0.0 0.00 0.64 0.64 90 1010.7
20260510021515 12 0.0 0.0 0.00 0.64 0.64 90 1010.7
20260510021015 12 0.0 0.0 0.00 0.64 0.64 90 1010.7
20260510020515 12 0.0 0.0 0.00 0.64 0.64 90 1010.6
20260510020015 12 0.0 0.0 0.00 0.64 0.64 90 1010.6
20260510015515 12 0.0 0.0 0.00 0.64 0.64 90 1010.5
20260510015015 12 0.0 0.0 0.00 0.64 0.64 90 1010.6
20260510014515 12 0.0 0.0 0.00 0.64 0.64 89 1010.5
20260510014015 12 0.0 0.0 0.00 0.64 0.64 89 1010.5
20260510013515 12 0.0 0.0 0.00 0.64 0.64 88 1010.6
20260510013015 12 0.0 0.0 0.00 0.64 0.64 88 1010.7
20260510012515 12 0.0 0.0 0.00 0.64 0.64 88 1010.6
20260510012015 12 0.0 0.0 0.00 0.64 0.64 88 1010.5
20260510011515 12 0.0 0.0 0.00 0.64 0.64 88 1010.4
20260510011015 12 0.0 0.0 0.00 0.64 0.64 88 1010.4
20260510010531 12 0.0 0.0 0.00 0.64 0.64 88 1010.3
20260510010015 12 0.0 0.0 0.00 0.64 0.64 88 1010.2
20260510005515 12 0.0 0.0 0.00 0.64 0.64 88 1010.1
20260510005015 12 0.0 0.0 0.00 0.64 0.64 88 1010.0
20260510004515 12 0.0 0.0 0.00 0.64 0.64 88 1010.0
20260510004015 12 0.0 0.0 0.00 0.64 0.64 88 1010.1
20260510003515 12 0.0 0.0 0.00 0.64 0.64 88 1009.9
20260510003015 13 0.0 0.0 0.00 0.64 0.64 88 1010.0
20260510002515 13 0.0 0.0 0.00 0.64 0.64 88 1010.0
20260510002017 13 0.0 0.0 0.00 0.64 0.64 88 1009.9
20260510001517 13 0.0 0.0 0.00 0.64 0.64 88 1010.0
20260510001017 13 0.0 0.0 0.00 0.64 0.64 87 1010.0
20260510000517 13 0.0 0.0 0.00 0.64 0.64 87 1010.0
20260510000017 13 0.0 0.0 0.00 0.64 0.64 87 1010.0
20260509235517 13 0.0 0.0 0.00 0.64 0.64 87 1009.8
20260509235017 13 0.0 0.0 0.00 0.64 0.64 87 1009.8
20260509234517 13 0.0 0.0 0.00 0.64 0.64 87 1009.8
20260509234017 13 0.0 0.0 0.00 0.64 0.64 87 1009.8
20260509233517 13 0.0 0.0 0.00 0.64 0.64 88 1009.6
20260509233017 13 0.0 0.0 0.00 0.64 0.64 88 1009.4
20260509232517 13 0.0 0.0 0.00 0.64 0.64 88 1009.4
20260509232017 13 0.0 0.0 0.00 0.64 0.64 88 1009.6
20260509231517 13 0.0 0.0 0.00 0.64 0.64 88 1009.6
20260509231017 13 0.0 0.0 0.00 0.64 0.64 88 1009.6
20260509230517 13 0.0 0.0 0.03 0.64 0.64 88 1009.5
20260509230016 13 0.0 0.0 0.03 0.64 0.64 88 1009.6